Stündliche Wetter Abasolo

Heute, 21 Juni, Montag

Zeit Temperatur Niederschläge Wind Luftdruck Luftfeuchtigkeit
00:00 +29°C° 0 mm 5 m/S 750 mmHg 82%
01:00 +29°C° 0 mm 4 m/S 749 mmHg 83%
02:00 +28°C° 0 mm 4 m/S 749 mmHg 83%
03:00 +28°C° 0 mm 4 m/S 749 mmHg 85%
04:00 +28°C° 0 mm 3 m/S 749 mmHg 86%
05:00 +28°C° 0 mm 3 m/S 749 mmHg 88%
06:00 +30°C° 0 mm 4 m/S 749 mmHg 80%
07:00 +32°C° 0 mm 4 m/S 749 mmHg 72%
08:00 +34°C° 0 mm 5 m/S 750 mmHg 63%
09:00 +36°C° 0 mm 4 m/S 749 mmHg 57%
10:00 +38°C° 0 mm 4 m/S 749 mmHg 51%
11:00 +41°C° 0 mm 4 m/S 749 mmHg 44%
12:00 +41°C° 0 mm 4 m/S 748 mmHg 44%
13:00 +41°C° 0 mm 5 m/S 748 mmHg 44%
14:00 +42°C° 0 mm 5 m/S 747 mmHg 43%
15:00 +40°C° 0.1 mm 6 m/S 747 mmHg 51%
16:00 +36°C° 0.1 mm 7 m/S 748 mmHg 58%
17:00 +34°C° 0.1 mm 7 m/S 748 mmHg 66%
18:00 +33°C° 0 mm 6 m/S 748 mmHg 72%
19:00 +32°C° 0 mm 5 m/S 748 mmHg 78%
20:00 +30°C° 0 mm 4 m/S 748 mmHg 84%
21:00 +29°C° 0 mm 4 m/S 749 mmHg 85%
22:00 +29°C° 0 mm 4 m/S 749 mmHg 86%
23:00 +29°C° 0 mm 4 m/S 749 mmHg 87%

Morgen, 22 Juni, Dienstag

Zeit Temperatur Niederschläge Wind Luftdruck Luftfeuchtigkeit
00:00 +28°C° 0 mm 3 m/S 749 mmHg 89%
01:00 +28°C° 0 mm 2 m/S 749 mmHg 90%
02:00 +27°C° 0 mm 1 m/S 749 mmHg 92%
03:00 +27°C° 0 mm 1 m/S 750 mmHg 92%
04:00 +27°C° 0 mm 1 m/S 751 mmHg 93%
05:00 +27°C° 0 mm 1 m/S 751 mmHg 94%
06:00 +29°C° 0.1 mm 1 m/S 751 mmHg 86%
07:00 +30°C° 0.1 mm 1 m/S 752 mmHg 79%
08:00 +32°C° 0.1 mm 1 m/S 752 mmHg 72%
09:00 +33°C° 0.4 mm 1 m/S 752 mmHg 66%
10:00 +34°C° 0.4 mm 1 m/S 752 mmHg 61%
11:00 +36°C° 0.4 mm 2 m/S 752 mmHg 56%
12:00 +36°C° 0.2 mm 2 m/S 752 mmHg 55%
13:00 +36°C° 0.2 mm 2 m/S 751 mmHg 54%
14:00 +37°C° 0.2 mm 3 m/S 751 mmHg 52%
15:00 +36°C° 0.1 mm 3 m/S 751 mmHg 56%
16:00 +35°C° 0.1 mm 4 m/S 751 mmHg 59%
17:00 +34°C° 0.1 mm 4 m/S 751 mmHg 62%
18:00 +33°C° 0.2 mm 4 m/S 751 mmHg 69%
19:00 +31°C° 0.2 mm 3 m/S 752 mmHg 76%
20:00 +29°C° 0.2 mm 3 m/S 752 mmHg 83%
21:00 +29°C° 0.6 mm 2 m/S 753 mmHg 86%
22:00 +28°C° 0.6 mm 2 m/S 753 mmHg 89%
23:00 +27°C° 0.6 mm 2 m/S 753 mmHg 92%

übermorgen, 23 Juni, Mittwoch

Zeit Temperatur Niederschläge Wind Luftdruck Luftfeuchtigkeit
00:00 +27°C° 0.6 mm 2 m/S 753 mmHg 92%
01:00 +27°C° 0.6 mm 2 m/S 753 mmHg 92%
02:00 +27°C° 0.6 mm 2 m/S 752 mmHg 92%
03:00 +27°C° 0.1 mm 1 m/S 752 mmHg 92%
04:00 +27°C° 0.1 mm 1 m/S 753 mmHg 91%
05:00 +27°C° 0.1 mm 1 m/S 753 mmHg 90%
06:00 +29°C° 0 mm 1 m/S 753 mmHg 82%
07:00 +31°C° 0 mm 1 m/S 754 mmHg 73%
08:00 +32°C° 0 mm 1 m/S 754 mmHg 65%
09:00 +35°C° 0 mm 2 m/S 754 mmHg 58%
10:00 +36°C° 0 mm 3 m/S 754 mmHg 52%
11:00 +39°C° 0 mm 5 m/S 753 mmHg 46%
12:00 +39°C° 0 mm 5 m/S 753 mmHg 45%
13:00 +39°C° 0 mm 6 m/S 753 mmHg 44%
14:00 +40°C° 0 mm 6 m/S 752 mmHg 43%
15:00 +38°C° 0 mm 6 m/S 752 mmHg 48%
16:00 +36°C° 0 mm 6 m/S 752 mmHg 54%
17:00 +35°C° 0 mm 6 m/S 753 mmHg 59%
18:00 +33°C° 0 mm 6 m/S 753 mmHg 67%
19:00 +32°C° 0 mm 5 m/S 754 mmHg 75%
20:00 +29°C° 0 mm 4 m/S 754 mmHg 83%
21:00 +29°C° 0.1 mm 3 m/S 754 mmHg 86%
22:00 +28°C° 0.1 mm 3 m/S 755 mmHg 89%
23:00 +28°C° 0.1 mm 2 m/S 755 mmHg 91%

24 Juni, Donnerstag

Zeit Temperatur Niederschläge Wind Luftdruck Luftfeuchtigkeit
00:00 +28°C° 0 mm 2 m/S 755 mmHg 91%
01:00 +27°C° 0 mm 2 m/S 754 mmHg 92%
02:00 +27°C° 0 mm 2 m/S 754 mmHg 92%
03:00 +27°C° 0 mm 2 m/S 754 mmHg 92%
04:00 +27°C° 0 mm 2 m/S 754 mmHg 91%
05:00 +27°C° 0 mm 2 m/S 754 mmHg 91%
06:00 +29°C° 0 mm 2 m/S 754 mmHg 80%
07:00 +31°C° 0 mm 3 m/S 754 mmHg 69%
08:00 +34°C° 0 mm 4 m/S 755 mmHg 58%
09:00 +35°C° 0 mm 4 m/S 754 mmHg 52%
10:00 +37°C° 0 mm 5 m/S 754 mmHg 46%
11:00 +40°C° 0 mm 5 m/S 754 mmHg 40%
12:00 +40°C° 0 mm 6 m/S 753 mmHg 40%
13:00 +40°C° 0 mm 7 m/S 753 mmHg 39%
14:00 +40°C° 0 mm 7 m/S 752 mmHg 38%
15:00 +39°C° 0 mm 7 m/S 752 mmHg 44%
16:00 +36°C° 0 mm 7 m/S 752 mmHg 51%
17:00 +34°C° 0 mm 7 m/S 753 mmHg 57%
18:00 +33°C° 0 mm 6 m/S 753 mmHg 66%
19:00 +30°C° 0 mm 6 m/S 753 mmHg 74%
20:00 +29°C° 0 mm 5 m/S 753 mmHg 83%
21:00 +29°C° 0 mm 4 m/S 754 mmHg 85%
22:00 +28°C° 0 mm 4 m/S 754 mmHg 87%
23:00 +28°C° 0 mm 3 m/S 754 mmHg 88%

25 Juni, Freitag

Zeit Temperatur Niederschläge Wind Luftdruck Luftfeuchtigkeit
00:00 +28°C° 0 mm 3 m/S 754 mmHg 89%
01:00 +27°C° 0 mm 3 m/S 754 mmHg 90%
02:00 +27°C° 0 mm 2 m/S 753 mmHg 91%
03:00 +26°C° 0 mm 2 m/S 753 mmHg 91%
04:00 +26°C° 0 mm 2 m/S 754 mmHg 91%
05:00 +26°C° 0 mm 2 m/S 754 mmHg 91%
06:00 +28°C° 0 mm 3 m/S 754 mmHg 79%
07:00 +30°C° 0 mm 4 m/S 754 mmHg 67%
08:00 +34°C° 0 mm 5 m/S 753 mmHg 54%
09:00 +35°C° 0 mm 5 m/S 753 mmHg 47%
10:00 +37°C° 0 mm 5 m/S 752 mmHg 40%
11:00 +40°C° 0 mm 6 m/S 752 mmHg 33%
12:00 +40°C° 0 mm 6 m/S 751 mmHg 34%
13:00 +41°C° 0 mm 7 m/S 751 mmHg 35%
14:00 +41°C° 0 mm 8 m/S 750 mmHg 36%
15:00 +39°C° 0 mm 8 m/S 750 mmHg 42%
16:00 +37°C° 0 mm 8 m/S 750 mmHg 48%
17:00 +34°C° 0 mm 8 m/S 750 mmHg 54%
18:00 +33°C° 0 mm 8 m/S 751 mmHg 62%
19:00 +30°C° 0 mm 7 m/S 751 mmHg 70%
20:00 +29°C° 0 mm 6 m/S 752 mmHg 79%
21:00 +28°C° 0 mm 6 m/S 752 mmHg 81%
22:00 +28°C° 0 mm 5 m/S 752 mmHg 83%
23:00 +28°C° 0 mm 4 m/S 752 mmHg 85%

26 Juni, Samstag

Zeit Temperatur Niederschläge Wind Luftdruck Luftfeuchtigkeit
00:00 +27°C° 0.1 mm 4 m/S 752 mmHg 87%
01:00 +27°C° 0.1 mm 3 m/S 751 mmHg 89%
02:00 +27°C° 0.1 mm 2 m/S 751 mmHg 90%
03:00 +26°C° 0 mm 2 m/S 751 mmHg 90%
04:00 +26°C° 0 mm 2 m/S 751 mmHg 91%
05:00 +26°C° 0 mm 2 m/S 751 mmHg 91%
06:00 +28°C° 0 mm 3 m/S 752 mmHg 79%
07:00 +30°C° 0 mm 4 m/S 752 mmHg 68%
08:00 +33°C° 0 mm 5 m/S 752 mmHg 56%
09:00 +35°C° 0 mm 6 m/S 751 mmHg 49%
10:00 +38°C° 0 mm 6 m/S 751 mmHg 43%
11:00 +40°C° 0 mm 7 m/S 751 mmHg 36%
12:00 +40°C° 0 mm 7 m/S 750 mmHg 36%
13:00 +40°C° 0 mm 8 m/S 750 mmHg 36%
14:00 +40°C° 0 mm 8 m/S 750 mmHg 37%
15:00 +38°C° 0 mm 8 m/S 750 mmHg 42%
16:00 +35°C° 0 mm 7 m/S 750 mmHg 48%
17:00 +34°C° 0 mm 7 m/S 750 mmHg 53%
18:00 +32°C° 0.1 mm 6 m/S 751 mmHg 63%
19:00 +30°C° 0.1 mm 6 m/S 752 mmHg 72%
20:00 +28°C° 0.1 mm 5 m/S 752 mmHg 81%
21:00 +28°C° 0.1 mm 4 m/S 752 mmHg 83%
22:00 +27°C° 0.1 mm 3 m/S 752 mmHg 85%
23:00 +27°C° 0.1 mm 2 m/S 752 mmHg 87%
Mehr zeigen

Wir brauchen deine Erlaubnis

Meteoprog und unser Service Anbieter werden persönliche Daten aufbewahren, so wie Cookies, Geräte Bezeichnung oder ähnliche Technologien von deinem Gerät und Prozess, so wie Persönliche Daten Inhalte und Werbungen, genauso wie social Media und den Verkehr zu analysieren.

  • Aufbewahrung und/oder Zugang zu deiner Geräte Informationen.

    Cookies, Geräte Bezeichnung oder andere Informationen, können aufbewahrt oder Zugang zu deinem Gerät erhalten, für den Grund, der oben angegeben wird.

  • Personalisierte Werbung und Inhalte, Messungen, Einblick in das Publikum und Produkt Entwicklung.

    Werbungen und Inhalte können personalisiert werden, basierend auf ein Profil. Mehr Daten können besser personalisierte Werbungen und Inhalte hinzufügen. Werbung und Inhalte können gezeigt und gemessen werden. Einblicke über das Publikum, welche die Werbung gesehen haben und den Inhalt, können abgeleitet werden. So wie Daten können genutzt werden, um es zu verbessern oder die Benutzer Erfahrung zu verbessern das System und die Software.

Wenn du “Ich stimme zu” klickst, erlaubst du uns, die Cookies zu benutzen die Geräte Bezeichnung, den Web oder ähnliche Technologien zu benutzen. Deine Settings, können in deinem Gerät bei deinem Browser geändert werden.

Für den bestimmten Zweck, berechtigten Interessen beruhen darauf, mehr als auf den Inhalt. Du kannst mehr darüber in unseren Privaten und Cookie Politik lesen.